Volver al catálogo

THORAD AGENA D DEB

ActivoPO
NORAD 4911·DEBRIS·🇺🇸 United States

Lanzado Apr 8, 1970 desde Vandenberg Space Force Base

Loading…

Próximos Pases (próximas 24 horas)

TLE

ActualizadoSource: Space-Track

Época: Sep 14, 2026, 03:47 UTC

1 04911U 70025FH  26257.15786426  .00001747  00000-0  65227-3 0  9994
2 04911  99.9562 151.1536 0060920  64.6557 296.0914 14.32440771884339

Sigue THORAD AGENA D DEB en tiempo real con AllMySat

Download on the App Store